TimeCDT,TemperatureF,Dew PointF,Humidity,Sea Level PressureIn,VisibilityMPH,Wind Direction,Wind SpeedMPH,Gust SpeedMPH,PrecipitationIn,Events,Conditions,WindDirDegrees,DateUTC
12:53 AM,46.9,42.1,83,29.94,10.0,Calm,Calm,-,N/A,,Clear,0,2012-11-02 05:53:00
1:53 AM,46.0,42.1,86,29.93,10.0,Calm,Calm,-,N/A,,Clear,0,2012-11-02 06:53:00
2:53 AM,44.1,42.1,93,29.94,10.0,Calm,Calm,-,N/A,,Clear,0,2012-11-02 07:53:00
3:53 AM,45.0,41.0,86,29.93,10.0,Calm,Calm,-,N/A,,Clear,0,2012-11-02 08:53:00
4:53 AM,43.0,41.0,93,29.93,10.0,Calm,Calm,-,N/A,,Clear,0,2012-11-02 09:53:00
5:53 AM,42.1,41.0,96,29.94,10.0,Calm,Calm,-,N/A,,Clear,0,2012-11-02 10:53:00
6:53 AM,43.0,41.0,93,29.94,10.0,Calm,Calm,-,N/A,,Clear,0,2012-11-02 11:53:00
7:53 AM,45.0,43.0,93,29.94,10.0,Calm,Calm,-,N/A,,Clear,0,2012-11-02 12:53:00
8:53 AM,48.9,45.0,86,29.96,10.0,Calm,Calm,-,N/A,,Clear,0,2012-11-02 13:53:00
9:53 AM,55.0,48.0,77,29.97,10.0,East,4.6,-,N/A,,Clear,100,2012-11-02 14:53:00
10:53 AM,63.0,52.0,67,29.96,10.0,SSE,3.5,-,N/A,,Clear,150,2012-11-02 15:53:00
11:53 AM,71.1,53.1,53,29.95,10.0,South,9.2,-,N/A,,Clear,190,2012-11-02 16:53:00
12:53 PM,75.9,53.1,45,29.92,10.0,SSW,6.9,-,N/A,,Clear,200,2012-11-02 17:53:00
1:53 PM,79.0,53.1,40,29.90,10.0,SW,8.1,-,N/A,,Clear,220,2012-11-02 18:53:00
2:53 PM,79.0,53.1,40,29.88,10.0,South,9.2,-,N/A,,Clear,190,2012-11-02 19:53:00
3:53 PM,79.0,52.0,39,29.87,10.0,SSW,13.8,18.4,N/A,,Clear,210,2012-11-02 20:53:00
4:53 PM,78.1,52.0,40,29.86,10.0,SSW,11.5,19.6,N/A,,Clear,200,2012-11-02 21:53:00
5:53 PM,73.9,53.1,48,29.86,10.0,South,11.5,-,N/A,,Clear,180,2012-11-02 22:53:00
6:53 PM,64.9,54.0,68,29.87,10.0,South,8.1,-,N/A,,Clear,170,2012-11-02 23:53:00
7:53 PM,64.0,55.0,73,29.88,10.0,South,8.1,-,N/A,,Clear,180,2012-11-03 00:53:00
8:53 PM,64.9,54.0,68,29.88,10.0,South,8.1,-,N/A,,Clear,180,2012-11-03 01:53:00
9:53 PM,59.0,53.1,81,29.89,10.0,South,6.9,-,N/A,,Clear,170,2012-11-03 02:53:00
10:53 PM,61.0,52.0,72,29.89,10.0,South,6.9,-,N/A,,Clear,190,2012-11-03 03:53:00
11:53 PM,64.9,52.0,63,29.89,10.0,SSW,9.2,-,N/A,,Clear,200,2012-11-03 04:53:00